Wind_Speed
12 13 14 14 15 16 15 16 17 18 19 20 21 21 20 19 17 16 14 13 14 14 15 16 17 17 17 17 17 17 17 16 16 16 17 18 18 19 20 21 23 24 25 25 25 26 26 26 26 26 26 26 26 26 26 25 25 25 25 25 25 25 24 23 23 24 24 25 25 26 26 27 27 27 27 27 27 28 28 27 26 26 26 25 23 23
12 13 14 15 16 16 16 16 18 19 21 22 22 21 20 19 17 15 14 13 14 15 16 17 17 17 16 16 16 16 16 16 17 17 18 18 19 20 21 22 23 24 24 25 25 25 25 26 26 26 26 26 26 25 25 25 25 25 25 25 25 24 23 22 22 23 23 24 25 26 27 27 27 28 28 28 28 27 27 27 26 26 25 24 23 23
13 14 15 16 16 16 16 18 19 20 21 22 22 21 20 19 18 16 16 16 16 17 17 17 17 16 15 15 16 16 17 17 18 19 19 19 20 21 22 23 24 24 24 25 25 25 26 26 26 27 26 26 25 25 25 25 25 24 24 25 25 24 24 24 24 23 24 24 25 26 26 27 27 28 28 27 26 26 25 24 24 24 23 23 23 22
14 14 16 16 16 15 16 19 20 21 21 22 22 21 20 20 19 18 18 18 18 18 17 16 16 15 15 15 16 17 18 19 20 20 20 20 20 21 22 23 24 24 24 25 25 26 26 26 26 26 26 25 24 24 24 24 24 24 24 25 25 25 25 25 25 25 24 25 25 26 26 26 26 26 25 25 24 23 22 21 21 21 21 21 21 22
14 14 16 16 15 15 16 19 21 22 22 21 21 21 21 21 20 19 18 18 18 17 17 16 15 15 16 17 18 19 20 20 21 21 20 20 21 22 22 23 23 24 25 25 26 26 26 26 25 25 24 23 23 23 23 23 24 24 24 25 25 26 26 26 26 25 25 25 25 25 25 24 24 23 22 22 21 21 20 20 20 20 21 21 21 22
14 14 16 15 14 14 16 19 20 21 22 21 21 21 21 20 20 19 19 18 17 17 16 16 16 16 17 19 20 21 21 21 20 20 19 19 20 21 22 22 23 24 25 25 25 25 25 24 23 23 22 22 23 23 23 23 24 24 25 25 25 25 25 25 25 25 25 25 25 24 24 24 23 22 22 21 21 21 21 21 21 21 21 22 23 23
13 15 16 16 15 14 15 18 19 20 21 21 20 20 19 19 18 19 19 19 18 18 17 17 17 18 19 21 22 22 21 19 18 18 18 18 19 20 22 23 24 24 24 24 23 23 22 22 21 22 22 23 23 23 24 24 24 25 25 25 25 25 24 24 24 24 24 24 24 23 23 23 23 23 23 23 23 23 23 23 23 24 24 25 26 26
15 16 16 16 15 15 15 16 17 18 19 19 19 19 18 17 16 17 19 19 20 19 19 19 19 20 21 22 23 22 20 18 16 16 17 18 20 22 23 24 24 23 22 21 21 20 20 20 21 21 22 23 23 24 24 24 24 24 24 24 24 24 24 23 23 23 23 23 23 23 23 23 23 24 24 24 24 25 25 25 26 26 27 27 28 28
16 16 16 15 15 15 15 14 14 15 16 16 16 16 16 16 16 16 17 18 18 18 19 19 20 21 21 22 21 19 17 16 15 16 18 20 23 25 26 25 23 21 19 19 19 19 19 20 21 22 22 23 23 24 24 24 24 23 23 23 23 23 23 23 23 23 23 23 22 22 22 23 23 24 24 25 25 25 26 26 27 27 27 28 28 28
16 16 16 15 15 14 13 13 14 14 14 14 14 14 14 16 18 17 16 15 15 15 16 17 19 21 23 21 19 16 16 15 16 18 20 23 26 26 25 22 20 18 17 17 18 18 19 20 21 22 23 23 24 24 23 23 23 22 22 22 22 22 22 22 22 23 22 22 22 22 22 23 23 23 24 24 25 25 26 26 26 27 27 27 28 28
15 15 15 14 13 12 11 12 12 13 13 14 14 13 12 14 16 17 16 15 15 15 15 15 17 20 22 21 18 16 16 17 20 22 24 26 27 25 22 18 16 16 17 17 18 19 20 21 22 22 23 24 24 23 23 22 22 22 22 22 22 22 22 22 22 22 22 22 22 22 23 23 23 24 24 25 25 25 26 26 26 26 26 27 27 27
13 13 12 12 12 11 11 11 12 13 13 14 14 13 12 13 14 14 14 15 16 16 16 16 17 19 20 20 18 17 18 21 23 25 27 27 25 22 19 16 16 17 18 20 21 22 23 22 22 23 24 24 24 23 22 22 22 22 22 22 22 22 22 22 22 22 22 22 23 23 23 24 24 24 25 25 25 25 25 26 26 26 26 26 26 27
12 11 11 11 10 10 11 12 12 12 12 12 13 13 13 13 14 14 13 14 15 16 18 19 19 19 19 17 17 18 21 23 25 26 26 25 23 20 18 18 18 19 20 21 23 25 25 24 24 24 25 25 25 23 23 22 22 22 22 22 22 22 22 22 22 22 22 23 23 23 24 24 24 24 25 25 25 25 25 25 25 25 26 26 26 26
11 10 10 10 10 10 11 12 12 11 11 12 12 13 13 13 14 14 14 14 15 16 18 19 20 19 18 16 16 18 21 23 24 25 25 24 22 19 18 19 19 20 21 22 24 25 26 25 26 27 27 27 25 24 23 22 22 22 22 22 22 22 22 22 22 22 22 23 23 23 24 24 24 24 24 24 24 24 25 25 25 25 25 25 25 26
10 9 9 8 9 10 11 11 11 11 11 12 12 13 13 12 13 13 13 14 16 17 19 19 19 18 15 14 16 19 21 23 23 24 24 24 22 19 18 19 20 21 21 22 24 25 26 26 26 27 28 27 25 23 22 22 22 22 22 22 22 22 22 22 22 22 22 23 23 23 23 23 23 24 24 24 24 24 24 24 25 25 25 25 25 25
8 8 8 8 9 9 10 11 11 12 12 12 12 12 12 12 13 13 13 14 16 18 18 18 18 16 15 14 16 18 21 22 22 22 22 22 21 19 18 19 20 21 22 23 24 26 27 26 26 27 27 26 24 22 22 22 22 22 22 22 21 21 22 22 22 22 22 22 23 23 23 23 23 23 23 23 24 24 24 24 25 25 25 25 25 25
8 8 8 8 9 9 10 11 11 11 12 11 10 10 11 12 13 14 14 15 16 16 15 15 13 12 12 15 17 18 20 22 23 23 21 19 19 18 18 19 21 22 23 24 25 26 26 26 26 27 26 24 23 22 21 21 22 22 21 21 21 21 22 22 22 22 22 22 22 22 23 23 23 23 23 23 23 24 24 24 25 25 25 25 25 25
8 8 8 8 8 9 11 11 11 11 11 10 10 10 12 13 14 14 14 14 14 14 14 14 12 10 9 12 16 18 19 20 22 21 18 18 18 19 19 20 21 22 23 24 25 25 25 25 26 27 25 23 22 21 21 21 21 21 21 21 21 21 22 22 22 22 22 22 22 22 22 22 23 23 23 23 23 24 24 24 24 24 25 25 25 25
8 9 10 10 9 10 11 12 12 11 10 9 10 11 13 13 14 13 12 12 12 13 13 12 12 11 11 12 15 18 18 19 20 19 17 17 19 20 20 21 22 23 24 24 25 25 25 26 27 27 25 23 21 21 20 21 21 21 21 21 22 22 22 22 22 22 22 22 22 22 22 23 23 23 23 23 23 24 24 24 24 24 24 24 24 24
10 11 11 12 12 11 11 11 11 10 10 10 11 12 12 13 12 11 11 12 12 13 13 12 12 12 13 15 16 17 17 19 19 18 17 18 19 20 21 22 23 24 24 24 24 24 25 26 28 28 26 23 21 20 20 21 21 21 22 22 22 22 22 22 22 22 22 22 22 22 23 23 23 23 23 23 23 23 23 24 24 24 24 24 24 25
11 11 11 11 12 12 12 12 11 10 11 11 12 12 12 12 11 10 10 12 14 14 14 13 13 14 14 15 16 16 17 18 18 17 17 18 19 20 21 22 23 23 23 23 23 24 26 27 28 27 25 22 20 20 20 20 21 21 22 22 22 22 22 23 23 23 23 22 22 22 22 23 23 23 23 23 23 23 23 23 23 24 24 24 24 25
10 10 10 9 10 11 12 13 12 12 11 11 12 13 12 13 12 11 11 12 14 15 14 14 13 13 13 13 14 15 16 17 17 17 16 17 19 21 22 22 22 22 21 22 24 25 26 27 27 26 23 21 19 19 20 20 21 21 22 22 22 22 23 23 23 23 23 22 22 22 22 22 23 23 23 23 23 23 23 23 23 23 24 24 25 24
9 10 9 10 10 10 10 12 13 13 11 10 12 14 14 14 12 11 12 13 14 14 14 13 13 12 12 12 13 14 15 16 17 18 17 15 18 21 22 22 21 21 21 22 24 26 27 27 26 24 23 21 19 19 20 21 21 22 22 22 22 23 23 23 23 23 22 22 22 22 22 22 22 22 22 23 23 23 23 23 23 23 24 24 24 24
9 9 10 10 10 10 10 11 12 13 12 10 12 14 15 14 12 11 11 13 14 14 14 14 14 13 12 13 13 15 16 16 17 18 17 16 18 20 21 21 21 21 21 22 24 25 26 26 25 23 22 21 20 20 20 21 21 22 22 23 23 23 23 23 23 22 22 22 22 22 22 22 22 22 22 23 23 23 24 24 24 24 24 24 24 22
9 9 10 10 10 10 10 10 11 12 12 12 13 15 15 14 12 11 12 14 16 16 16 15 15 15 15 15 15 16 17 17 17 18 18 17 18 19 20 20 20 21 22 23 24 24 24 24 23 22 21 21 21 21 21 21 22 22 23 23 23 24 23 23 23 22 22 22 23 23 23 23 23 23 23 23 23 24 24 24 24 24 24 24 23 21
9 9 10 10 11 11 10 10 10 10 11 12 14 15 15 15 14 13 13 16 17 18 17 16 15 16 17 17 16 17 18 17 17 19 20 18 18 19 20 20 20 21 22 23 23 23 23 22 22 21 20 21 22 24 23 22 22 22 23 23 24 24 23 23 23 22 22 23 23 23 23 23 23 23 23 24 24 24 24 24 24 24 24 23 22 20
9 10 10 10 11 10 10 9 9 10 11 12 13 14 15 16 16 15 15 16 17 18 16 14 13 14 16 17 17 17 18 17 18 21 22 20 17 17 19 20 21 21 22 23 23 22 21 20 20 19 20 21 24 25 24 23 23 23 23 24 24 24 23 23 23 23 23 23 23 23 23 23 23 24 24 24 24 24 24 24 25 24 24 22 21 21
8 8 9 9 10 10 9 9 10 11 12 13 13 13 15 16 16 15 15 16 17 16 15 13 12 12 13 14 16 17 17 16 18 21 23 19 16 16 18 20 21 21 22 23 23 22 19 17 17 17 19 22 25 26 26 25 25 25 25 25 24 23 23 22 22 23 23 23 23 23 23 23 23 24 24 24 24 24 24 25 25 25 24 22 22 21
9 9 9 10 11 11 11 11 11 12 13 13 13 14 15 16 15 14 15 16 17 15 13 13 13 13 13 15 17 17 16 15 18 21 23 19 16 16 18 19 20 21 21 23 23 22 18 16 15 16 19 22 25 26 26 26 26 27 27 26 25 24 23 22 23 23 23 23 23 23 23 23 23 24 24 24 24 24 25 25 25 25 24 23 22 21
12 12 12 12 12 12 12 12 12 12 13 13 14 14 15 15 15 15 15 16 16 14 13 13 13 14 15 16 15 14 12 15 18 21 21 17 16 17 18 19 19 19 20 20 17 16 16 18 17 17 20 23 24 25 26 26 27 28 29 28 27 25 23 23 23 23 23 23 23 23 23 23 23 24 24 24 24 24 25 25 25 25 24 23 22 22
15 15 14 14 13 13 13 13 13 12 13 14 14 15 15 15 15 15 15 16 15 14 12 12 13 13 14 13 9 7 8 15 19 20 20 17 15 16 18 18 18 18 18 16 10 7 10 16 19 21 22 23 24 24 25 25 26 27 28 28 28 26 25 24 24 24 24 24 23 23 23 23 23 24 24 24 24 24 24 25 25 24 24 24 23 23
16 16 15 15 14 14 14 13 13 13 13 14 15 16 16 15 15 15 15 15 16 15 14 13 12 12 12 12 9 7 10 15 19 20 20 17 15 16 18 17 18 18 17 15 11 8 6 9 17 24 24 24 23 23 24 24 24 26 27 27 27 26 25 25 25 25 24 24 24 23 23 23 23 24 24 23 23 24 24 25 24 24 24 24 23 23
17 17 16 15 15 14 14 14 13 13 14 15 16 17 16 15 15 15 16 16 16 15 15 14 13 13 13 12 11 12 14 16 19 20 19 17 16 16 17 17 18 18 17 15 14 12 10 12 17 22 24 23 22 22 23 23 24 25 26 26 26 26 26 26 25 25 24 24 24 23 23 23 23 23 23 23 23 24 24 24 24 23 23 23 23 23
17 18 17 17 16 16 15 14 14 14 15 16 17 18 17 16 16 16 17 17 16 16 15 15 15 14 13 12 11 12 14 17 19 19 19 18 17 16 17 17 17 17 17 16 16 15 14 16 17 19 20 22 22 21 21 22 23 25 25 25 25 25 26 26 26 25 25 24 24 24 23 24 24 23 23 24 24 24 24 24 23 22 22 22 22 23
18 19 19 19 19 18 17 16 16 16 16 17 17 18 17 17 18 18 18 18 17 17 16 15 14 14 14 12 12 13 16 19 19 18 18 19 18 17 17 16 16 16 16 16 15 15 14 16 17 17 17 19 21 21 21 21 23 24 25 25 24 24 25 26 26 25 25 24 23 23 23 24 24 23 23 24 24 24 24 24 23 22 21 21 21 21
18 19 20 20 20 19 17 17 17 17 18 18 18 18 18 18 19 19 19 19 18 18 17 15 14 12 12 12 13 15 17 18 18 17 17 18 19 19 17 16 16 16 15 15 15 15 14 15 16 17 16 16 17 19 21 23 24 24 24 24 24 24 25 25 25 24 24 22 22 22 23 24 23 23 24 24 25 25 25 24 24 23 22 22 21 20
17 18 19 20 20 18 16 17 17 17 17 18 19 19 19 20 20 20 19 19 19 19 19 18 15 13 11 10 11 13 15 15 16 16 16 18 19 18 17 16 17 17 15 14 15 15 15 15 16 16 15 14 14 16 20 24 25 25 25 25 25 24 24 24 24 23 22 21 21 22 23 23 23 23 24 25 26 26 26 26 26 25 24 24 23 21
15 16 17 18 19 18 16 16 16 16 16 18 19 20 21 21 21 21 20 20 21 21 22 21 19 16 14 12 11 12 13 13 14 15 16 17 18 18 18 18 19 18 17 15 15 15 14 14 12 12 13 14 15 17 20 22 23 24 25 25 24 23 23 23 23 22 21 21 21 22 23 23 23 24 24 25 26 27 27 28 27 27 26 26 25 24
14 15 16 16 17 16 16 15 15 15 16 17 19 21 22 22 22 22 22 23 23 24 24 24 23 20 18 16 15 15 14 14 15 15 16 17 18 18 18 19 20 19 18 17 16 14 13 12 11 11 11 14 16 19 20 21 22 23 24 24 24 23 23 23 22 22 21 22 22 23 23 24 24 24 24 25 25 26 26 27 28 27 27 26 26 25
14 14 15 15 15 15 15 14 14 15 15 17 19 22 23 24 24 24 25 25 26 27 27 27 26 24 22 19 18 17 17 16 16 17 17 18 18 18 18 19 20 20 19 18 17 15 14 13 13 13 14 14 15 17 19 20 21 22 23 22 21 22 23 23 22 22 22 22 22 23 23 24 24 24 24 25 25 25 26 26 27 27 26 25 24 24
13 14 15 15 15 15 15 14 14 14 15 16 19 23 26 27 28 28 28 29 29 29 30 30 30 29 26 23 21 19 19 18 18 18 19 19 19 19 19 19 19 20 20 19 19 18 16 15 15 15 16 16 17 18 18 20 20 21 20 19 20 21 22 22 21 22 22 22 22 23 23 23 24 24 24 25 25 26 26 26 26 26 25 24 24 23
13 14 15 15 15 15 15 14 14 14 15 15 19 24 27 29 29 30 30 31 31 31 31 31 31 30 28 26 24 22 20 19 19 19 20 20 20 20 20 20 19 19 20 20 20 19 18 16 16 16 17 17 17 17 18 20 20 20 18 18 20 22 22 21 22 23 23 23 23 23 23 23 24 24 25 26 26 27 27 26 26 25 24 25 25 25
13 14 15 15 15 15 14 14 14 14 15 15 17 22 27 29 30 30 30 30 29 29 30 30 29 27 26 25 25 24 23 21 20 20 20 21 21 21 21 20 20 19 19 20 20 20 19 18 17 17 17 17 17 17 17 19 20 19 18 18 19 19 18 21 23 24 24 24 24 24 24 25 25 25 25 26 26 27 27 27 26 25 25 26 26 26
14 14 15 15 15 14 14 15 15 15 14 14 16 20 26 28 30 30 30 30 29 29 29 29 28 26 24 24 24 25 24 23 22 21 21 21 22 22 22 22 21 19 19 19 19 19 19 19 18 17 17 16 17 17 18 18 18 18 18 18 18 17 16 19 22 24 24 25 25 25 26 26 27 27 26 26 26 26 27 27 27 27 27 27 26 26
15 15 15 15 15 15 15 15 15 15 14 13 15 19 24 27 29 30 30 30 30 29 28 28 26 23 22 23 24 25 26 25 24 23 22 22 23 23 23 23 22 20 19 19 18 18 18 18 18 17 16 15 16 17 17 17 17 18 18 19 18 18 18 20 21 21 22 23 25 26 27 28 28 27 26 25 26 26 26 27 27 28 28 27 27 26
15 15 16 16 16 15 15 15 15 15 14 13 14 18 23 26 29 30 30 30 29 28 27 27 24 21 20 21 23 25 25 26 26 25 25 25 25 25 24 23 22 21 20 19 18 16 16 16 16 16 16 16 16 15 15 15 16 17 18 19 19 19 19 20 20 20 21 22 24 26 28 29 28 26 24 25 26 26 27 27 27 27 27 27 26 26
15 15 15 15 15 15 15 15 16 15 15 14 14 17 21 25 28 30 31 31 30 28 27 26 24 22 20 21 22 22 23 24 25 25 25 25 26 25 25 24 23 21 20 18 17 16 14 13 12 12 14 14 14 13 14 15 15 16 18 19 20 20 20 20 20 21 22 22 24 26 29 29 27 25 25 26 26 26 26 27 27 26 26 26 26 27
15 15 15 15 15 15 15 16 16 16 15 14 15 16 20 24 27 29 31 31 30 28 25 25 24 22 21 21 21 21 21 22 22 23 23 24 25 25 25 24 24 23 21 19 17 15 13 10 8 8 9 10 10 11 13 16 17 17 17 18 19 19 19 21 22 22 23 23 25 27 27 26 25 24 25 25 24 24 25 26 27 26 25 25 26 27
15 15 15 15 15 15 15 15 16 16 15 15 15 16 19 23 26 29 30 30 29 27 24 24 23 21 20 21 21 22 21 21 20 20 21 22 23 24 24 24 24 24 23 22 20 17 14 10 7 5 7 8 9 11 15 17 18 18 17 17 17 18 19 21 22 23 23 25 26 27 27 25 24 24 23 21 21 22 24 25 26 25 25 25 26 27
15 15 15 15 15 15 15 15 15 15 16 16 16 17 19 23 27 30 31 31 29 27 25 24 22 21 20 20 21 22 21 20 19 19 20 21 22 23 23 24 24 23 22 22 22 21 18 15 11 8 7 7 9 12 15 18 19 18 17 17 17 18 19 20 22 23 24 25 27 27 27 26 24 23 21 20 20 21 23 24 24 24 25 26 28 29
15 15 15 15 15 15 15 15 15 15 16 17 17 17 18 22 27 30 32 31 30 28 27 25 22 20 19 19 20 20 19 19 18 19 19 20 21 21 22 22 22 22 21 20 19 19 19 17 15 12 11 9 9 12 15 17 18 18 18 17 18 18 19 20 22 24 25 25 26 26 26 25 23 21 20 19 19 19 21 22 24 24 25 27 29 30
Wind_Direction
338 340 342 342 341 341 341 342 341 338 336 337 337 337 337 335 334 333 335 336 336 335 333 331 329 328 326 324 321 320 322 326 328 330 331 330 329 328 327 326 325 324 323 322 321 320 320 320 320 320 320 320 320 320 321 322 322 322 320 318 316 315 315 315 314 313 313 314 315 315 315 315 315 314 313 312 310 308 307 306 306 304 302 301 300 299
339 341 342 341 341 341 340 341 341 340 338 337 339 340 341 339 337 336 335 335 335 334 333 332 331 328 325 321 319 318 321 326 329 330 331 330 329 328 327 326 325 324 323 322 322 321 321 321 321 320 320 320 320 321 322 324 324 324 324 324 323 323 323 322 320 319 319 318 317 317 316 315 315 315 314 313 312 310 309 308 306 304 302 302 301 301
338 339 340 340 341 341 339 340 341 342 341 341 342 344 344 342 340 338 336 334 334 334 335 334 331 328 323 320 319 320 324 327 330 330 330 329 328 327 327 326 325 325 324 323 322 322 321 321 320 319 319 319 320 322 322 322 323 324 324 326 328 329 329 327 325 323 322 320 319 317 316 316 317 317 317 317 315 313 311 310 308 306 306 306 306 307
335 336 337 339 340 340 339 340 342 344 346 346 347 348 348 346 343 340 337 335 335 336 337 336 333 329 325 324 324 326 328 330 330 330 329 328 328 327 327 326 326 325 324 324 323 322 321 320 320 319 319 320 322 323 324 323 324 324 323 325 326 326 325 324 324 323 322 320 318 317 317 317 318 318 318 316 315 314 313 313 313 312 312 313 314 314
331 332 335 338 339 339 338 341 344 346 348 350 350 351 350 348 345 342 341 340 340 340 340 338 335 331 329 329 330 332 332 331 330 329 328 327 327 327 327 326 326 325 324 323 322 322 322 321 321 322 322 324 325 326 327 327 327 327 325 325 324 322 321 320 320 320 319 318 317 317 318 318 318 318 318 318 317 317 318 318 318 317 318 319 319 318
329 331 333 336 337 336 336 341 345 348 348 349 350 350 350 348 346 345 345 345 345 344 342 340 337 334 332 332 333 334 334 331 329 326 325 326 326 325 325 326 326 325 324 323 323 323 323 324 325 327 329 330 331 331 331 330 330 328 327 326 325 323 322 321 320 319 318 317 317 318 319 319 319 320 321 322 322 322 323 323 322 321 320 320 319 318
327 330 333 335 335 335 336 340 346 349 348 347 347 348 349 348 347 346 345 345 345 344 342 340 338 335 334 333 334 334 334 331 327 323 320 321 323 323 324 325 325 325 324 325 325 326 327 329 330 332 333 334 333 333 331 329 328 327 326 325 325 324 323 322 320 319 318 318 318 318 320 320 320 321 322 323 322 322 323 322 322 321 320 319 318 317
327 329 333 335 335 334 334 339 346 351 350 349 348 348 347 348 347 345 343 342 342 342 341 339 338 336 336 336 336 335 332 328 324 320 318 319 320 323 324 325 326 326 327 328 329 330 331 333 334 334 333 332 331 329 328 327 326 325 325 325 324 323 322 321 320 319 319 320 320 320 321 321 320 320 319 319 319 319 319 319 319 318 317 316 315 314
330 332 335 336 335 332 332 336 344 351 353 353 352 350 348 347 345 344 344 343 342 341 340 338 337 336 337 338 337 334 328 324 321 320 320 322 324 325 326 327 328 329 332 333 333 334 334 334 334 333 332 331 329 328 327 326 326 326 325 325 324 323 323 322 321 321 321 322 322 322 322 321 320 319 318 317 317 317 317 317 316 316 315 314 313 313
337 337 337 338 338 336 334 338 343 349 354 354 354 352 349 346 342 341 340 340 340 340 339 338 336 335 335 336 335 330 323 320 320 321 322 323 325 327 329 330 333 336 337 336 335 335 334 334 333 333 332 332 330 329 329 329 328 327 327 326 325 324 324 323 323 323 323 323 323 323 322 321 319 318 318 317 316 316 315 315 315 314 314 313 312 312
343 345 343 341 342 344 345 346 347 348 350 350 351 352 350 346 342 338 335 334 336 338 339 338 336 334 332 332 331 329 327 326 325 323 322 322 325 328 331 335 339 342 340 336 333 332 333 334 334 334 335 334 333 333 332 332 331 329 328 327 326 326 325 325 324 324 324 324 324 322 321 320 319 318 317 316 315 315 315 314 314 314 313 313 312 311
351 352 349 345 345 349 353 352 350 348 348 349 348 348 346 345 342 338 332 331 333 335 337 335 334 332 330 328 329 331 334 334 332 329 326 327 330 335 340 343 343 342 338 333 331 331 333 334 335 336 336 336 336 336 335 333 332 331 330 329 328 327 327 326 326 326 325 324 323 322 321 320 319 318 317 316 315 315 315 314 314 314 313 312 311 311
2 359 353 349 348 351 353 350 348 348 349 349 347 342 338 338 340 339 333 331 332 334 334 332 331 331 330 328 330 335 338 337 334 331 331 333 338 344 347 345 341 338 334 331 330 331 333 335 336 337 338 338 339 338 336 334 333 332 331 331 330 329 328 328 328 327 325 324 323 322 321 320 319 318 317 316 316 315 315 315 314 314 313 313 311 310
6 1 355 351 349 349 348 347 345 345 346 346 342 337 333 336 340 341 338 334 332 332 332 329 329 329 330 331 333 337 340 339 336 334 335 337 342 347 346 341 336 333 331 330 330 331 334 335 336 337 339 340 340 339 336 335 334 333 333 333 332 331 329 329 328 327 325 324 323 322 321 320 319 318 318 317 316 316 315 315 314 313 313 312 311 310
5 359 354 348 345 343 343 342 341 341 341 341 339 338 339 342 346 348 343 337 333 332 331 329 328 329 331 333 334 336 341 343 341 339 337 337 341 345 343 336 332 330 329 329 329 331 334 335 336 336 338 339 338 337 335 334 334 334 335 334 333 332 330 329 328 327 326 324 323 322 322 321 320 320 319 318 318 317 316 315 314 312 311 311 310 309
2 358 351 344 340 340 340 340 340 340 340 343 345 349 352 353 352 349 344 337 333 332 332 331 331 331 332 333 335 339 345 346 344 339 335 333 336 341 339 333 330 328 328 328 329 331 333 335 336 336 336 336 335 334 334 334 335 335 335 335 334 333 332 330 329 328 327 326 325 324 323 323 322 321 320 319 318 317 315 314 313 312 312 311 310 309
1 357 351 345 341 339 340 342 344 346 348 352 358 3 3 357 351 346 342 336 334 333 333 333 333 332 331 332 337 345 353 349 343 338 333 328 330 334 335 332 329 328 327 328 328 330 333 335 336 335 335 334 333 333 334 335 335 336 336 335 334 334 333 332 331 329 328 327 326 325 324 323 322 321 320 319 317 316 315 314 314 313 312 312 311 310
5 1 356 350 346 344 345 347 351 356 1 4 7 6 2 357 351 345 339 336 334 333 333 333 333 331 329 329 333 344 359 351 342 336 331 327 327 330 332 332 330 328 327 327 329 331 334 335 335 334 333 331 332 333 334 335 336 336 336 336 335 335 334 333 332 331 329 328 327 326 325 323 322 321 320 319 318 317 316 316 315 314 313 312 311 310
13 9 4 359 356 354 355 356 359 5 10 11 9 6 2 358 353 348 342 340 338 336 334 333 332 330 326 319 329 345 359 352 344 337 331 327 327 329 332 333 332 329 327 327 329 332 334 334 335 335 334 332 331 333 334 336 336 336 336 336 336 335 335 334 333 332 331 329 328 327 326 324 323 322 321 320 320 319 318 317 316 315 314 314 313 312
26 23 18 12 8 5 1 1 4 9 11 13 13 12 8 3 358 353 347 345 342 341 339 336 331 327 324 322 332 347 357 353 347 340 333 328 327 329 334 335 333 330 327 328 330 333 333 334 334 335 336 335 334 334 336 336 336 336 336 336 336 336 335 334 333 332 331 329 328 327 326 326 325 324 323 322 321 321 320 319 319 318 317 316 315 314
34 28 23 16 12 8 2 1 1 2 2 8 16 19 14 9 5 359 353 348 345 343 341 337 331 329 329 328 335 346 356 354 348 341 334 330 329 331 335 335 334 330 328 328 330 332 332 333 334 335 337 335 334 335 336 336 336 336 336 336 336 336 335 334 334 332 331 330 329 328 327 327 326 326 325 324 323 323 322 322 321 320 320 319 318 318
32 26 19 14 10 6 1 359 356 353 354 5 20 26 19 13 8 4 359 354 349 344 340 335 332 333 334 332 338 348 356 355 350 344 336 332 331 332 335 336 334 332 329 329 330 331 332 332 333 335 336 335 334 335 336 336 336 336 336 336 336 336 335 335 334 333 332 331 330 330 329 329 328 327 327 326 325 325 325 324 324 323 322 321 321 322
29 23 16 12 10 6 2 359 356 352 351 6 26 30 23 15 10 6 2 358 352 346 341 338 338 339 337 336 340 348 354 355 353 349 342 335 331 331 334 336 335 333 330 330 330 330 331 331 332 335 337 337 337 337 337 337 337 337 337 337 336 336 336 335 335 334 333 333 332 331 331 330 330 329 328 328 328 328 327 327 326 325 325 324 324 325
28 22 17 13 10 7 5 4 360 355 353 6 23 27 20 14 10 8 5 1 357 352 347 344 345 345 343 342 342 345 351 354 354 351 346 338 331 330 333 336 335 333 331 329 329 329 329 330 331 334 337 339 339 338 338 338 338 338 337 337 337 337 336 336 335 335 335 334 334 333 333 333 332 331 331 331 331 331 330 330 329 329 328 328 328 328
28 22 18 15 11 9 8 7 5 0 357 6 16 17 12 11 12 12 9 5 1 357 354 352 351 350 347 345 343 344 347 351 352 352 348 339 331 330 333 337 336 333 330 329 329 329 328 328 330 334 337 338 339 339 340 339 339 339 338 337 337 337 337 337 337 336 336 336 335 335 335 335 334 334 334 334 334 334 333 333 332 332 332 332 333 333
29 24 20 17 14 13 13 11 9 8 6 10 12 10 7 12 15 15 11 7 3 360 358 356 353 349 347 346 344 342 343 346 350 351 349 340 332 330 334 337 337 333 330 329 329 329 327 326 328 333 337 337 338 340 342 342 340 339 338 338 338 338 338 338 338 337 337 337 336 336 335 335 335 336 336 336 336 335 335 335 335 335 335 337 337 337
34 29 25 22 22 24 26 25 22 18 18 17 15 12 12 16 18 17 13 7 3 1 359 356 351 346 344 344 341 338 338 342 348 350 348 342 333 330 334 337 337 334 331 329 328 327 326 324 327 332 336 337 338 340 342 343 342 341 340 340 340 340 340 339 338 338 337 337 337 337 336 336 336 336 337 337 337 337 337 337 337 338 338 340 341 340
43 39 37 37 40 44 47 46 40 32 26 24 23 22 21 21 20 17 10 4 2 1 359 355 349 343 340 337 333 332 334 341 347 349 347 342 336 332 334 336 337 336 333 330 327 327 326 327 329 334 336 336 337 339 342 343 343 343 342 342 343 343 342 341 340 339 337 337 337 338 337 337 337 337 337 338 338 338 339 339 340 341 343 343 343 341
50 49 51 55 57 57 56 55 50 42 32 28 27 26 25 24 22 16 8 4 2 360 356 352 347 342 336 331 329 330 334 342 347 347 346 343 337 333 334 336 338 339 337 333 331 329 329 330 333 336 336 336 337 338 341 342 343 344 344 344 345 345 344 342 340 339 338 338 338 338 338 338 338 338 339 339 339 340 340 342 343 344 346 346 344 342
48 49 55 60 62 60 57 55 52 48 40 34 30 29 28 26 22 17 10 7 4 360 352 347 343 340 336 333 332 333 336 341 344 346 347 344 337 334 334 336 338 340 340 338 336 333 330 330 332 335 335 335 335 337 339 341 342 343 343 344 346 346 345 342 341 340 340 339 338 338 339 339 339 340 341 340 341 341 341 343 345 346 346 346 344 341
43 46 52 58 61 59 56 54 53 51 48 41 35 30 28 25 22 18 13 9 5 359 350 343 338 336 336 335 334 332 329 333 338 344 347 343 336 332 333 334 335 337 340 341 340 331 325 326 327 329 332 333 333 334 337 339 341 342 343 343 344 345 344 343 342 342 341 341 340 340 340 340 340 341 341 341 341 342 343 344 346 346 346 345 343 340
42 45 50 55 59 58 54 52 50 50 48 42 35 30 27 24 21 17 13 8 4 358 351 342 335 331 330 328 324 316 316 324 333 341 346 342 335 330 332 332 331 332 335 337 332 322 314 317 320 323 327 329 330 331 335 337 340 341 342 342 342 343 344 344 343 342 341 341 340 340 340 340 341 341 341 341 342 342 343 345 346 346 345 344 341 339
42 44 47 52 55 54 50 47 45 44 41 37 31 26 24 24 21 17 12 7 2 358 353 346 338 331 327 322 316 312 313 320 331 340 345 343 336 331 331 330 330 330 331 331 327 319 309 307 313 318 321 324 325 328 332 336 339 341 341 341 340 341 343 344 344 342 340 340 339 339 340 341 341 341 341 342 343 343 343 344 345 346 345 343 340 338
41 42 43 45 46 46 44 42 39 37 34 30 26 22 20 20 18 14 10 6 2 359 356 352 345 336 329 323 317 314 314 323 335 343 344 344 339 332 330 330 330 330 330 330 328 323 316 312 314 317 319 320 322 326 331 335 338 340 341 340 339 339 341 343 343 341 340 339 339 339 339 340 340 341 341 342 342 342 342 342 344 345 345 343 340 338
37 38 37 37 36 35 34 33 31 29 27 25 22 19 17 16 14 11 7 4 3 2 1 357 351 344 337 328 321 317 318 328 337 342 342 342 340 337 333 332 332 332 331 329 328 326 322 318 317 318 318 320 322 325 330 335 337 339 340 341 340 339 341 342 342 341 340 339 339 339 339 340 339 339 340 340 341 341 341 342 344 345 345 344 342 339
31 31 31 30 28 26 25 25 24 23 23 22 20 17 15 14 12 9 6 5 5 5 6 5 1 353 343 334 326 321 321 328 334 337 337 337 337 338 336 333 333 333 332 329 327 326 323 320 319 319 319 320 321 325 329 334 337 339 340 341 341 341 341 343 343 342 340 339 338 337 338 338 338 337 337 338 339 340 342 345 347 347 347 346 345 342
26 24 24 24 24 22 20 21 21 20 20 20 18 15 13 12 10 8 7 7 7 8 9 10 10 6 358 345 335 329 327 329 331 332 332 332 333 336 337 334 334 336 334 328 325 324 322 320 320 321 321 320 320 323 326 331 335 337 338 339 339 339 341 343 343 343 341 339 337 336 337 336 336 336 336 337 339 342 344 347 349 349 349 349 348 346
23 20 18 19 19 19 18 18 19 19 20 19 16 12 11 11 10 10 10 10 10 10 9 10 11 12 10 4 355 347 341 338 335 333 332 332 334 336 338 336 336 336 335 329 324 321 320 319 319 320 320 318 318 319 322 327 331 333 334 335 336 337 340 342 342 342 340 338 337 336 337 336 335 335 336 337 339 341 342 345 347 348 348 348 348 348
20 17 14 14 13 13 13 14 16 19 22 19 15 12 10 10 10 11 11 11 11 10 9 8 8 10 10 9 5 0 355 349 343 339 337 337 338 340 340 339 338 337 336 332 326 320 315 312 311 312 314 315 316 318 321 325 328 330 331 333 335 337 339 340 341 340 339 338 337 336 336 336 336 335 335 335 336 337 337 339 341 343 343 343 343 343
17 14 11 10 10 10 12 15 18 22 23 19 15 12 12 11 10 10 10 10 10 9 8 7 6 7 8 8 6 3 359 354 350 346 344 344 344 345 344 342 340 338 336 334 329 322 315 308 304 303 304 307 310 314 318 321 325 328 332 333 333 333 334 336 337 338 338 338 337 335 334 334 335 334 333 333 334 334 334 334 335 338 340 338 336 335
13 9 7 7 10 14 17 21 25 26 25 19 15 14 15 14 12 10 9 8 8 8 7 6 4 4 5 6 6 3 360 356 352 350 349 349 350 350 349 346 344 341 338 334 330 326 320 311 305 302 302 303 305 307 311 315 321 327 330 329 327 326 327 331 335 337 338 338 336 335 334 333 333 333 332 331 331 332 333 333 334 335 338 338 336 333
12 8 6 7 10 14 20 26 28 28 25 20 15 15 16 15 13 11 8 8 7 6 5 4 2 1 360 0 1 1 360 357 354 352 352 353 353 353 351 349 348 345 341 335 332 328 325 318 311 305 304 305 306 307 309 314 320 325 327 325 325 326 328 332 335 337 337 336 335 334 333 332 331 330 329 328 329 332 334 336 335 335 335 337 337 337
12 9 8 10 13 18 23 26 26 26 24 18 14 13 14 14 13 11 8 6 4 4 3 2 0 358 355 353 354 355 356 355 354 354 354 355 355 354 353 352 351 349 345 337 331 328 327 324 317 313 313 313 310 306 306 312 319 324 326 327 328 330 331 331 332 334 334 333 333 333 333 332 330 328 327 327 328 331 334 337 338 339 339 339 339 339
14 12 13 15 18 22 25 25 24 22 20 14 9 9 11 11 11 9 7 5 4 3 2 1 359 357 355 353 351 350 350 352 353 353 354 355 356 355 354 353 354 353 349 340 332 327 325 323 321 321 322 319 313 308 307 311 316 321 325 329 329 327 323 323 325 328 330 331 332 333 333 332 330 328 327 327 328 331 333 336 338 341 343 343 342 341
19 17 17 17 20 22 22 21 20 18 15 8 4 5 6 7 8 7 6 4 3 2 1 360 358 357 355 353 350 348 347 348 350 351 353 354 355 356 355 355 354 353 350 345 338 330 323 317 317 322 325 322 316 311 309 311 315 321 326 328 327 324 320 320 322 325 327 328 329 331 333 333 331 329 328 327 328 329 331 334 336 339 341 343 342 341
19 16 15 17 19 19 18 17 16 14 10 4 1 1 3 4 4 5 5 4 3 1 359 359 358 356 353 350 349 348 346 346 346 348 350 352 353 355 356 355 354 353 350 349 346 341 332 322 319 320 320 318 316 315 316 318 320 322 325 327 328 326 324 324 325 325 325 325 326 328 332 333 332 330 328 327 326 327 329 332 334 336 338 339 340 339
16 15 14 15 15 16 17 16 14 10 6 1 358 358 359 0 1 2 3 3 2 0 358 358 357 355 351 350 349 348 346 344 343 344 346 348 350 352 353 353 354 355 355 354 353 351 346 339 331 325 319 313 310 314 324 329 329 327 325 326 327 327 326 326 326 326 326 324 324 327 330 332 331 328 326 325 325 325 327 330 332 334 336 337 337 337
16 15 14 14 14 14 14 13 11 8 3 359 355 354 356 358 359 0 1 1 1 360 357 356 354 351 349 349 349 349 347 344 343 342 343 345 347 349 350 351 352 354 358 1 2 2 0 357 348 337 329 319 312 315 326 331 331 329 325 326 327 326 326 325 326 327 327 326 326 328 329 328 326 323 322 322 322 322 324 326 329 331 334 335 335 335
19 16 15 15 14 13 12 12 10 6 2 357 353 351 353 355 357 359 360 360 360 359 357 354 351 348 346 347 348 348 348 346 345 344 345 346 347 347 349 349 350 352 355 359 4 8 13 17 16 2 351 340 331 328 330 331 331 329 327 327 327 327 326 325 326 327 327 327 327 328 329 327 325 322 319 316 315 317 319 323 326 329 331 333 334 335
23 20 18 17 15 12 10 10 8 5 1 358 354 351 351 352 355 357 359 359 359 358 356 354 351 348 345 345 347 348 349 347 346 346 347 347 348 348 348 350 351 351 352 354 358 2 5 9 15 22 20 1 343 336 334 332 331 330 330 329 329 329 327 325 325 326 327 327 327 327 328 327 326 325 321 316 314 315 317 321 324 327 329 332 333 334
25 22 20 19 16 12 10 9 6 4 1 359 355 352 351 352 353 356 358 358 358 357 355 354 352 350 347 346 347 348 348 348 347 346 347 347 348 349 349 351 352 353 353 354 355 355 353 354 356 359 0 3 352 342 338 335 332 329 330 330 331 331 328 326 325 325 326 326 326 326 326 327 327 326 323 319 316 316 318 322 324 325 328 330 332 333
Height
795 794 794 793 792 792 791 791 790 789 788 787 787 786 786 785 785 784 784 783 783 782 782 781 781 780 779 778 777 776 776 775 774 773 772 771 770 770 769 768 767 766 765 763 762 761 760 758 757 756 755 753 752 751 750 748 747 746 745 744 742 741 740 739 738 737 736 735 734 732 731 730 729 728 727 726 726 726 725 723 722 722 721 720 719 718
795 794 794 793 792 791 791 790 790 789 788 787 786 786 785 785 784 783 783 783 783 782 781 781 780 779 778 777 776 776 775 774 773 772 771 771 770 769 768 767 766 765 763 762 761 760 759 757 756 755 754 752 751 750 748 747 746 745 744 742 741 740 738 737 736 736 735 734 733 731 731 730 728 727 726 725 725 724 723 722 721 721 720 718 716 716
794 794 793 793 792 791 790 790 789 789 788 787 786 786 785 784 784 783 783 782 782 781 781 780 779 778 777 776 776 775 774 773 772 772 771 770 769 768 766 766 765 763 762 761 760 759 757 756 755 754 753 751 750 749 747 746 745 744 743 742 740 739 738 736 736 734 733 733 732 731 730 729 727 726 725 724 723 723 722 721 720 719 718 716 715 714
794 794 793 792 792 791 790 789 789 788 788 787 786 785 785 784 783 783 782 782 781 781 780 779 779 778 777 776 775 775 774 773 772 771 770 769 768 767 766 764 763 762 761 760 759 758 756 755 754 753 751 750 749 747 746 745 744 743 742 741 739 738 737 736 735 734 733 732 731 730 729 727 726 725 724 723 722 721 721 719 719 718 716 715 714 713
794 794 793 792 791 791 790 790 789 788 787 786 786 785 784 784 783 782 782 781 781 780 779 779 778 777 776 775 775 774 773 772 771 770 769 768 767 766 765 763 762 761 760 759 758 757 756 754 753 751 750 749 748 746 745 744 743 742 741 740 739 737 736 735 734 733 732 731 730 729 728 726 726 725 724 722 721 720 719 718 718 716 715 714 713 712
795 794 793 792 792 791 790 789 789 788 786 786 785 785 784 783 783 782 781 781 780 780 779 778 777 777 776 775 774 773 772 771 770 769 768 767 766 765 764 763 761 761 759 758 757 756 755 753 752 751 749 748 747 746 745 743 742 741 740 739 738 737 736 734 733 732 731 730 729 728 726 726 725 723 722 721 720 719 718 717 716 715 714 713 712 711
795 794 793 792 792 791 791 789 789 788 787 786 785 784 784 783 783 782 781 780 780 779 778 778 777 776 776 774 773 772 771 770 769 768 767 766 765 764 763 762 761 760 758 757 756 755 754 752 751 750 749 747 746 745 744 743 742 741 740 738 737 736 735 733 732 731 730 729 728 726 726 724 723 722 721 720 719 718 717 716 715 714 713 712 711 710
794 794 793 793 792 791 790 790 789 788 787 786 785 784 783 783 783 782 781 780 779 778 778 777 776 776 775 774 773 771 771 769 768 767 766 765 764 763 762 761 760 758 757 756 755 754 753 752 751 749 748 747 746 745 744 742 741 740 739 738 736 735 734 733 731 730 729 728 727 726 725 723 722 721 720 719 718 717 716 715 714 713 712 711 710 709
795 794 793 793 792 791 790 789 789 789 788 787 786 785 783 782 782 781 781 781 780 779 777 776 775 775 774 774 773 771 770 769 768 767 766 764 763 762 761 760 758 757 756 756 755 754 752 751 750 749 748 746 745 744 743 741 740 739 738 736 736 734 733 732 731 729 728 727 726 725 724 723 722 721 720 719 717 716 715 714 713 712 711 710 709 708
795 794 793 793 792 791 791 790 789 789 788 787 787 786 785 783 781 781 780 780 780 779 778 777 775 774 773 772 772 771 770 768 767 766 766 764 763 761 760 759 757 756 756 755 754 753 752 751 750 748 747 746 744 743 741 740 739 738 737 736 735 733 732 731 730 728 727 726 725 724 723 722 721 720 719 718 717 716 715 713 712 711 710 709 708 707
794 794 793 792 792 791 791 791 790 789 788 787 786 786 786 785 783 781 780 779 778 778 778 777 776 775 773 771 771 770 769 767 766 765 764 763 762 761 759 758 757 756 755 754 753 752 751 750 749 747 746 744 743 741 740 739 738 737 736 735 734 732 731 730 729 728 726 725 724 723 722 721 720 719 718 717 716 715 713 712 711 710 709 708 707 706
794 794 793 793 792 791 791 791 790 789 788 787 786 785 785 785 784 783 781 780 779 778 777 776 776 775 774 772 770 769 768 766 765 764 763 761 761 760 758 757 756 755 754 753 752 751 750 749 748 746 745 743 741 740 739 738 737 736 735 734 733 731 730 729 728 727 726 725 724 723 721 721 719 718 717 716 715 714 712 711 710 709 708 707 706 705
795 794 794 793 792 792 791 790 789 789 788 787 786 786 785 784 784 783 782 781 780 779 777 776 775 774 773 772 771 769 767 766 765 763 762 761 760 759 757 756 755 754 754 752 751 750 749 748 746 745 744 742 741 739 738 737 736 735 734 733 732 731 730 728 727 726 725 724 723 722 721 720 718 717 716 715 714 712 711 710 709 708 707 706 705 703
795 794 794 793 792 792 791 791 790 789 788 788 787 787 786 785 784 783 782 781 780 779 778 776 775 774 773 772 771 769 768 766 765 763 761 760 759 758 757 756 755 754 753 752 751 749 748 747 746 744 742 741 740 739 738 737 736 735 733 732 731 730 729 728 726 726 724 723 722 721 720 719 717 716 715 714 713 711 710 709 708 707 706 705 703 702
795 794 794 793 792 792 791 791 790 789 789 788 787 787 786 785 784 783 782 781 780 779 777 776 775 774 773 772 771 769 768 766 765 763 761 760 759 758 757 756 755 754 753 751 750 749 747 746 745 743 741 740 739 738 737 736 735 734 733 732 731 729 728 727 726 725 724 722 721 720 719 718 716 715 714 713 711 711 709 708 707 706 704 703 702 701
795 795 794 794 793 792 792 791 790 790 789 788 787 787 786 785 784 784 783 782 780 779 777 775 774 772 772 772 771 770 768 766 765 763 761 759 758 758 757 756 754 753 752 751 749 748 746 745 744 743 741 740 739 738 737 736 735 734 732 731 730 729 728 726 725 724 723 722 721 719 718 717 716 714 713 712 711 710 708 707 706 704 703 702 701 699
796 795 795 794 793 792 792 791 791 790 789 788 787 787 786 786 785 784 783 782 781 779 778 776 775 773 771 770 770 770 768 767 765 764 762 760 758 758 757 756 754 753 751 750 749 747 746 745 743 742 741 740 739 738 737 736 734 733 732 731 730 728 727 726 725 723 722 721 720 718 717 716 715 713 712 711 710 708 707 706 705 703 702 701 699 698
796 796 795 794 794 793 792 791 791 790 789 788 788 787 786 786 785 784 783 782 781 780 778 777 777 776 774 772 770 769 769 767 766 764 762 760 759 757 757 756 754 752 751 749 748 747 746 744 743 742 741 739 738 737 736 735 734 733 731 730 729 728 726 725 724 723 721 720 719 718 716 715 714 713 711 710 709 707 706 705 703 702 701 699 698 696
796 796 795 795 794 793 792 791 791 790 789 788 788 787 786 786 785 784 783 782 781 781 779 778 777 776 775 773 771 770 769 768 766 765 763 761 758 757 756 755 754 752 750 749 747 746 745 744 742 741 740 739 738 737 736 735 734 732 731 730 729 727 726 725 723 722 721 720 718 717 716 714 713 711 710 709 707 706 705 703 702 701 699 698 696 695
796 796 796 795 794 793 792 792 791 790 789 789 788 787 786 785 785 784 783 782 781 781 780 779 777 776 775 773 771 770 769 768 767 765 763 761 759 757 756 755 753 751 749 748 746 746 744 743 742 741 739 738 737 736 736 734 733 732 731 729 728 727 726 724 723 721 720 719 717 716 715 713 712 711 709 708 706 705 704 702 701 700 698 697 695 694
796 796 796 795 794 793 793 792 791 791 790 788 787 787 786 785 785 784 783 782 781 780 779 778 777 776 775 774 772 771 770 769 767 766 763 761 759 757 756 755 753 751 749 747 746 745 744 742 741 740 739 738 737 736 735 734 733 731 730 729 728 726 725 724 722 721 719 718 717 715 714 712 711 710 708 707 706 704 703 701 700 698 697 696 694 692
797 796 796 795 795 794 793 792 791 791 790 788 787 786 786 785 784 784 783 782 781 780 779 778 777 776 775 774 773 771 770 769 768 766 764 761 758 756 756 754 753 751 749 747 745 744 743 741 741 739 738 738 737 736 735 734 732 731 730 729 727 726 724 723 721 720 719 717 716 715 713 712 710 709 707 706 705 703 702 700 699 697 696 694 693 691
797 796 796 795 795 794 793 793 792 791 790 788 787 787 786 786 785 784 784 783 782 781 780 778 777 776 775 774 773 771 771 769 768 767 765 762 760 757 756 754 753 751 749 747 745 743 742 741 740 739 738 737 736 736 734 733 732 731 729 728 726 725 724 722 721 719 718 717 715 714 712 711 710 708 707 705 704 702 701 699 698 696 695 693 692 690
797 796 796 795 795 794 793 793 792 791 790 788 787 787 786 786 785 785 784 783 782 781 779 778 776 775 774 773 772 771 770 769 768 767 765 763 761 758 756 755 753 751 749 747 745 743 741 740 739 738 738 737 736 735 734 733 731 730 729 727 726 725 723 721 720 719 717 716 715 713 712 710 709 707 706 705 703 701 700 699 697 696 694 692 691 689
797 796 796 795 795 794 793 793 792 791 790 789 788 787 786 786 786 785 784 782 781 780 779 777 776 775 773 772 771 770 769 769 768 767 766 764 761 758 757 756 754 751 749 747 745 743 741 740 739 738 737 736 736 734 733 732 731 730 728 726 725 724 722 721 720 718 717 716 714 713 711 710 708 707 705 704 702 701 699 698 696 695 693 691 690 688
797 796 796 795 794 794 793 793 792 792 791 790 788 787 787 786 785 784 783 782 781 780 778 777 776 775 773 772 771 770 769 769 768 767 766 764 761 758 757 756 754 752 749 747 745 743 741 740 738 737 737 736 735 734 733 731 730 729 727 726 725 723 721 720 719 718 716 715 714 712 711 709 708 706 705 703 702 700 699 697 696 694 692 691 689 687
796 796 795 795 794 793 793 792 792 791 791 790 789 788 787 786 785 784 783 782 781 781 779 778 777 775 774 772 771 770 769 768 768 767 766 764 762 759 757 756 754 752 750 747 745 743 742 740 738 737 736 735 734 733 732 731 730 728 727 725 724 722 721 720 718 717 716 714 713 711 710 709 707 706 704 703 701 700 698 696 695 693 691 690 688 686
796 796 795 794 794 793 792 792 791 791 791 790 789 788 787 786 785 785 784 784 783 782 781 780 778 777 775 774 772 771 770 769 768 766 766 764 762 760 758 756 755 753 750 747 744 742 741 740 738 737 736 735 734 732 731 730 729 727 726 725 723 721 720 719 718 716 715 714 712 711 710 708 707 705 704 702 701 699 697 696 694 692 691 689 688 686
796 795 795 794 793 793 792 792 791 791 791 790 790 789 788 787 786 786 786 785 783 782 781 781 780 778 776 775 773 771 770 769 768 766 765 764 762 761 759 757 756 754 751 747 743 740 739 739 738 737 736 735 733 732 731 729 728 726 725 724 722 721 720 719 717 716 715 713 712 711 709 708 706 705 703 702 700 699 697 696 694 692 690 689 687 686
796 795 794 794 793 793 792 792 791 791 791 791 790 789 788 788 787 787 786 785 784 783 782 781 780 779 777 775 772 770 769 768 768 767 766 764 762 761 759 758 756 755 753 750 746 741 738 737 737 737 736 735 733 732 730 729 727 726 724 723 721 720 719 718 717 716 714 713 711 710 709 707 706 704 703 701 700 698 697 695 694 692 690 689 687 686
796 795 794 794 793 793 792 792 792 791 791 791 790 790 789 788 788 787 786 786 785 784 783 782 781 779 778 776 774 772 769 768 768 767 766 765 763 761 760 759 757 756 755 754 752 747 742 737 735 735 735 735 733 732 731 729 728 726 725 723 721 720 719 717 716 715 713 712 711 709 708 706 705 704 702 701 699 698 696 695 693 692 690 689 687 686
796 796 795 794 794 793 793 792 792 792 791 791 790 790 789 789 788 787 787 786 785 784 783 782 781 779 778 777 776 774 771 770 768 768 767 766 764 762 761 760 758 756 756 756 755 753 749 743 737 735 735 734 733 732 731 730 728 727 725 723 721 720 719 717 716 714 712 711 710 709 707 706 705 703 702 700 699 697 696 695 694 692 691 689 687 686
796 796 795 795 794 794 793 793 792 792 791 791 791 790 790 789 788 788 787 786 785 784 783 782 781 779 778 777 776 774 772 771 769 768 767 766 764 762 761 760 758 757 756 755 754 754 752 748 743 738 736 734 733 732 731 730 729 727 726 724 722 720 718 717 716 714 713 711 710 708 707 706 704 703 701 700 698 697 696 695 693 692 691 689 688 686
797 796 796 795 794 794 794 793 793 792 792 791 791 791 790 789 789 788 787 786 786 784 783 782 781 779 778 776 775 773 772 770 769 768 767 766 765 763 761 760 758 757 756 754 753 752 751 748 746 742 738 735 733 732 731 730 729 728 726 725 723 721 719 717 716 714 713 711 710 708 706 705 704 702 701 699 698 697 696 695 693 692 691 690 688 686
797 796 796 795 795 794 794 794 793 793 792 792 792 791 791 790 789 788 787 786 785 784 783 782 781 780 778 777 775 773 771 770 769 768 767 766 765 763 761 760 759 758 756 754 753 751 750 748 746 744 741 736 733 732 731 731 729 728 726 725 723 722 720 718 717 715 713 711 710 708 707 705 704 702 701 699 698 696 696 694 693 692 691 690 688 686
797 797 796 796 796 795 795 794 794 794 793 793 792 792 791 790 789 788 787 786 785 784 783 782 781 779 778 777 775 774 772 770 769 768 767 766 765 763 761 760 759 758 757 755 753 752 750 748 746 744 742 739 736 732 731 730 729 728 726 725 723 722 720 719 717 716 714 712 710 709 707 706 704 702 701 699 698 696 695 693 692 691 690 689 688 686
798 797 797 796 796 796 796 795 795 795 794 794 793 792 791 791 790 789 787 786 785 784 782 781 780 779 778 777 775 774 772 771 769 768 767 766 765 763 762 760 759 758 757 756 754 752 751 748 746 744 742 741 738 735 732 730 728 727 726 725 723 721 720 719 718 716 715 713 711 710 708 706 704 702 701 699 697 696 694 692 691 690 689 688 686 686
799 798 798 797 797 796 796 796 796 796 795 795 794 793 792 791 790 789 787 786 785 783 782 781 779 778 777 776 775 774 772 771 769 768 767 766 764 763 761 760 759 758 757 756 755 753 751 749 747 745 742 741 739 737 735 732 730 728 726 725 723 722 721 719 718 717 715 714 712 710 708 706 705 703 701 699 697 695 693 691 690 689 688 686 686 684
800 800 799 798 798 797 797 797 796 796 796 796 795 794 792 791 790 788 787 786 784 783 781 780 778 777 776 775 774 773 771 770 769 767 766 765 764 762 761 760 758 757 756 755 754 753 752 750 749 746 744 741 739 737 736 734 732 730 727 725 722 721 720 719 718 717 716 714 712 710 708 706 705 703 701 699 697 695 693 691 690 688 687 686 684 683
801 801 800 800 799 799 798 798 797 797 796 796 795 794 792 790 789 787 786 785 783 782 780 779 777 776 775 774 773 772 771 769 768 767 766 764 763 761 760 759 757 756 755 754 753 752 751 750 749 747 745 743 741 738 736 735 733 731 729 726 723 721 720 719 718 717 716 714 712 711 708 706 705 703 701 699 698 696 694 692 691 689 687 686 684 682
802 801 801 800 800 799 799 799 798 798 797 796 795 794 792 790 788 786 785 783 782 780 779 777 776 775 774 773 772 771 770 769 767 766 765 763 762 761 760 758 757 755 754 752 751 751 750 749 748 746 745 743 741 739 737 736 734 733 731 729 726 723 721 720 719 717 716 714 712 711 709 707 705 703 701 700 698 696 695 693 691 689 688 686 685 684
802 802 801 801 801 800 800 799 799 798 797 796 795 794 792 790 789 787 785 783 781 780 778 776 775 773 772 771 771 770 769 768 767 766 764 763 761 760 759 757 756 755 753 751 750 749 748 748 746 745 744 742 741 739 737 735 734 733 731 730 727 724 721 719 718 717 716 714 712 711 709 707 705 703 701 699 697 696 694 692 691 690 688 686 685 684
803 803 802 802 801 801 800 800 799 798 797 796 795 794 793 791 790 788 786 784 783 781 779 777 776 774 772 770 769 768 768 767 766 765 763 762 761 759 758 756 755 754 752 751 749 748 747 746 745 744 743 742 741 739 737 735 733 732 731 730 728 725 722 719 717 716 715 714 712 711 709 707 705 703 701 699 697 695 693 692 691 689 688 686 685 683
804 803 803 802 802 801 801 800 799 798 797 797 796 795 793 792 791 789 787 785 783 781 780 778 776 774 772 771 769 767 766 766 765 764 763 761 760 759 757 755 754 753 752 751 749 747 746 745 744 743 742 741 741 739 737 736 734 732 731 730 729 727 725 722 719 717 715 713 712 710 709 707 705 702 700 698 696 694 693 691 689 688 687 686 684 683
804 804 803 803 802 801 801 800 800 799 798 797 796 795 794 792 791 789 788 786 784 782 780 779 777 775 773 771 769 767 765 764 763 762 761 761 760 758 756 755 753 752 751 750 749 748 746 745 743 742 741 741 740 739 737 736 734 732 731 729 728 727 725 723 721 719 716 714 712 710 708 706 704 702 699 697 695 693 692 691 689 687 686 685 683 682
805 804 804 803 802 802 801 801 800 799 798 797 796 795 794 793 791 790 788 786 784 782 781 779 778 776 775 773 771 768 766 763 762 761 760 759 758 757 756 754 753 751 750 749 748 747 746 745 743 742 741 740 739 738 737 736 734 732 731 729 727 726 724 722 721 719 717 715 712 710 708 706 704 702 699 697 694 692 691 690 689 687 686 684 683 681
806 805 804 804 803 803 802 801 801 800 799 798 797 796 795 793 791 790 788 786 785 783 781 780 778 777 776 774 772 771 768 766 763 761 759 758 757 756 755 753 752 751 750 749 747 746 745 744 743 742 741 739 738 737 736 736 734 733 731 729 727 725 723 721 720 718 717 715 713 711 708 706 704 702 699 696 694 691 690 689 688 686 685 684 682 681
806 806 805 805 804 803 802 802 801 800 799 798 797 796 795 794 792 790 788 786 785 783 782 780 778 777 776 775 773 772 771 768 766 763 761 759 757 756 755 753 752 751 749 748 747 746 745 744 743 742 741 740 738 737 736 735 734 733 731 729 727 726 723 721 719 718 716 714 712 710 709 707 705 702 700 697 694 691 689 688 686 686 685 684 682 681
807 806 806 805 805 804 803 802 801 801 800 799 797 796 795 794 793 791 789 787 786 784 782 781 779 778 776 775 774 772 771 769 767 765 763 761 759 757 755 754 752 750 749 747 746 745 744 743 742 741 741 740 739 737 736 735 733 732 731 729 728 726 724 721 719 717 715 713 711 710 708 707 705 703 701 698 695 692 689 687 686 685 684 683 681 680
807 807 806 806 805 805 804 803 802 801 800 799 798 796 795 794 792 791 789 787 786 784 783 782 780 779 777 776 774 773 771 770 768 766 764 763 761 759 757 755 753 751 749 747 746 744 743 742 741 741 741 740 740 738 737 735 733 731 730 729 728 726 724 721 719 717 715 713 711 709 707 706 704 702 701 698 696 692 689 687 685 684 683 681 680 679
808 808 807 806 806 805 805 804 803 802 801 800 798 797 796 794 792 791 789 787 786 784 783 782 781 780 778 776 775 774 772 771 769 767 766 764 763 761 759 757 756 753 751 749 747 746 744 743 741 740 740 740 740 739 737 735 733 731 730 728 727 726 724 722 719 717 715 713 711 709 707 705 703 702 700 698 696 692 690 687 685 683 682 681 679 678